Fryeburg, ME

10:15 AM EST on December 07, 2016 (GMT -0500)
Eastern Slopes Regional

Weather History for KIZG - October, 2012

Change the Weather History Date:

Saturday, October 13, 2012

  Actual Average Record
Temperature  
Mean Temperature 34 °F -  
Max Temperature 50 °F 58 °F 77 °F (2000)
Min Temperature 21 °F 33 °F 21 °F (2012)
Degree Days  
Heating Degree Days 30    
Moisture  
Dew Point 24 °F    
Average Humidity 67    
Maximum Humidity 92    
Minimum Humidity 33    
Precipitation  
Precipitation 0.00 in - - ()
Sea Level Pressure  
Sea Level Pressure 30.37 in    
Wind  
Wind Speed 2 mph (WNW)    
Max Wind Speed 7 mph    
Max Gust Speed -    
Visibility 10 miles    
Events Rain    
Averages and records for this station are not official NWS values.
T = Trace of Precipitation, MM = Missing Value Source: NWS Daily Summary

Daily Weather History Graph

Daily Weather History Graph

Search for Another Location

Airport or City:

Trip Planner

Search our weather history database for the weather conditions in past years. The results will help you decide how hot, cold, wet, or windy it might be!

Date:

Astronomy

Oct. 13, 2012 Rise Set
Actual Time 6:56 AM EDT 6:02 PM EDT
Civil Twilight 6:27 AM EDT 6:31 PM EDT
Nautical Twilight 5:53 AM EDT 7:04 PM EDT
Astronomical Twilight 5:20 AM EDT 7:38 PM EDT
Moon 4:39 AM EDT (10/13) 4:46 PM EDT (10/13)
Length of Visible Light 12h 04m
Length of Day
11h 06m
Waning Crescent, 5% of the Moon is Illuminated
Oct 13
Waning Crescent
Oct 15
New
Oct 21
First Quarter
Oct 29
Full
Nov 6
Last Quarter

Hourly Weather History & Observations

Time (EDT) Temp. Windchill Dew Point Humidity Pressure Visibility Wind Dir Wind Speed Gust Speed Precip Events Conditions
12:54 AM 27.0 °F - 24.1 °F 89% 30.34 in 10.0 mi Calm Calm - N/A   Scattered Clouds
1:54 AM 27.0 °F 23.0 °F 23.0 °F 85% 30.35 in 10.0 mi NW 3.5 mph - N/A   Clear
2:54 AM 25.0 °F - 21.9 °F 88% 30.34 in 10.0 mi Calm Calm - 0.00 in   Clear
3:54 AM 25.0 °F 20.7 °F 23.0 °F 92% 30.36 in 10.0 mi SSW 3.5 mph - 0.00 in   Clear
4:54 AM 24.1 °F - 21.0 °F 88% 30.37 in 10.0 mi Calm Calm - N/A   Clear
5:54 AM 23.0 °F - 21.0 °F 92% 30.38 in 10.0 mi Calm Calm - N/A   Clear
6:54 AM 21.0 °F - 19.0 °F 92% 30.40 in 10.0 mi Calm Calm - N/A   Clear
7:54 AM 28.0 °F - 24.1 °F 85% 30.41 in 10.0 mi Calm Calm - N/A   Clear
8:54 AM 36.0 °F - 27.0 °F 70% 30.42 in 10.0 mi Calm Calm - 0.00 in   Clear
9:54 AM 42.1 °F 39.2 °F 21.9 °F 45% 30.43 in 10.0 mi NNW 4.6 mph - 0.00 in   Clear
10:54 AM 45.0 °F 41.2 °F 19.0 °F 36% 30.40 in 10.0 mi SW 6.9 mph - 0.00 in   Clear
11:54 AM 46.9 °F - 19.0 °F 33% 30.39 in 10.0 mi NNW 6.9 mph - 0.00 in Rain Light Rain
12:54 PM 48.0 °F - 19.9 °F 33% 30.37 in 10.0 mi West 6.9 mph - 0.00 in Rain Light Rain
2:54 PM 48.9 °F - 21.9 °F 35% 30.34 in 10.0 mi WNW 6.9 mph - 0.00 in Rain Rain
4:54 PM 48.0 °F - 21.9 °F 36% 30.35 in 10.0 mi WNW 4.6 mph - 0.00 in   Clear
5:54 PM 41.0 °F - 27.0 °F 57% 30.36 in 10.0 mi Calm Calm - 0.00 in   Clear
6:54 PM 37.9 °F - 30.0 °F 73% 30.37 in 10.0 mi Calm Calm - N/A   Clear
8:54 PM 37.9 °F - 30.0 °F 73% 30.33 in 10.0 mi Calm Calm - N/A   Partly Cloudy
10:54 PM 37.9 °F - 32.0 °F 79% 30.31 in 10.0 mi Calm Calm - N/A   Overcast